Weather reports worldwide

Advertisment
Fehmarnbelt/Grosstonne, Germany (10043): temperature & dewpoint: 16.02.2019 22:00:00 - 22.02.2019 22:00:00 (CET)Fehmarnbelt/Grosstonne, Germany (10043): water temperature: 16.02.2019 22:00:00 - 22.02.2019 22:00:00 (CET)Fehmarnbelt/Grosstonne, Germany (10043): reduced air pressure: 16.02.2019 22:00:00 - 22.02.2019 22:00:00 (CET)
Date & Time tt [°C] td [°C] tw [°C] ppp [hPa]
22.02.2019 22:00:00 2,0 -2,5 3,8 1044,1
22.02.2019 21:00:00 2,0 -2,8 3,9 1043,8
22.02.2019 20:00:00 2,5 -2,5 3,9 1043,3
22.02.2019 19:00:00 2,7 -2,5 3,9 1043,5
22.02.2019 18:00:00 2,7 -2,0 4,0 1043,1
22.02.2019 17:00:00 2,9 -1,6 4,0 1042,5
22.02.2019 16:00:00 3,2 -1,6 4,0 1042,3
22.02.2019 15:00:00 3,5 -2,3 4,0 1042,1
22.02.2019 14:00:00 3,4 -1,8 4,0 1041,9
22.02.2019 13:00:00 3,4 -2,0 3,9 1041,4
22.02.2019 12:00:00 3,7 -2,0 3,9 1041,0
22.02.2019 11:00:00 3,7 -1,8 3,9 1040,5
22.02.2019 10:00:00 3,5 -2,0 3,9 1039,8
22.02.2019 09:00:00 2,7 -1,8 3,9 1038,7
22.02.2019 08:00:00 2,7 -1,0 4,0 1037,6
22.02.2019 07:00:00 2,7 -0,3 4,0 1036,0
22.02.2019 06:00:00 3,0 0,2 4,0 1034,8
22.02.2019 05:00:00 3,2 0,9 4,0 1033,4
22.02.2019 04:00:00 3,2 1,2 4,0 1032,2
22.02.2019 03:00:00 3,2 2,7 4,1 1031,1
22.02.2019 02:00:00 4,7 4,7 4,1 1029,7
22.02.2019 01:00:00 5,5 5,2 4,1 1028,0
22.02.2019 00:00:00 5,4 5,2 4,1 1026,6
21.02.2019 23:00:00 5,7 5,5 4,1 1025,5
21.02.2019 22:00:00 5,0 5,0 4,1 1024,7
21.02.2019 21:00:00 5,2 5,2 4,1 1023,7
21.02.2019 20:00:00 5,4 5,2 4,1 1023,0
21.02.2019 19:00:00 5,2 5,0 4,0 1022,3
21.02.2019 18:00:00 5,4 5,4 3,9 1021,8
21.02.2019 17:00:00 5,5 5,4 3,9 1021,1
21.02.2019 16:00:00 5,5 5,5 3,9 1020,7
21.02.2019 15:00:00 5,7 5,2 4,0 1020,6
21.02.2019 14:00:00 5,5 5,2 3,9 1020,7
21.02.2019 13:00:00 5,7 5,0 3,9 1020,6
21.02.2019 12:00:00 5,7 4,9 3,9 1020,5
21.02.2019 11:00:00 6,2 5,0 3,9 1019,8
21.02.2019 10:00:00 6,5 4,7 3,9 1019,0
21.02.2019 09:00:00 5,5 4,5 3,9 1019,1
21.02.2019 08:00:00 5,0 4,4 3,9 1019,4
21.02.2019 07:00:00 5,0 4,5 3,8 1019,3
21.02.2019 06:00:00 5,5 4,5 3,8 1019,2
21.02.2019 05:00:00 5,2 4,2 3,8 1019,5
21.02.2019 04:00:00 5,4 4,0 3,8 1019,4
21.02.2019 03:00:00 5,5 4,2 3,8 1019,5
21.02.2019 02:00:00 5,4 4,4 3,9 1019,6
21.02.2019 01:00:00 5,4 4,5 3,9 1019,5
21.02.2019 00:00:00 5,4 4,5 3,9 1019,7
20.02.2019 23:00:00 5,7 4,7 3,9 1019,7
20.02.2019 22:00:00 5,7 5,2 3,9 1019,8
20.02.2019 21:00:00 5,7 5,2 3,9 1020,0
20.02.2019 20:00:00 5,4 4,7 4,0 1020,2
20.02.2019 19:00:00 5,0 4,4 3,9 1020,1
20.02.2019 18:00:00 5,5 4,5 3,9 1019,9
20.02.2019 17:00:00 5,4 4,5 3,7 1019,7
20.02.2019 16:00:00 6,0 4,5 3,8 1019,4
20.02.2019 15:00:00 5,7 4,4 3,9 1019,4
20.02.2019 14:00:00 5,7 4,2 4,0 1019,2
20.02.2019 13:00:00 5,7 4,0 3,9 1019,0
20.02.2019 12:00:00 6,0 4,2 3,9 1018,8
20.02.2019 11:00:00 5,7 4,0 3,8 1018,2
20.02.2019 10:00:00 5,7 4,0 3,8 1017,8
20.02.2019 09:00:00 5,4 4,0 3,7 1017,0
20.02.2019 08:00:00 4,7 4,0 3,7 1016,5
20.02.2019 07:00:00 4,7 4,0 3,8 1015,7
20.02.2019 06:00:00 4,9 4,0 3,8 1015,6
20.02.2019 05:00:00 5,0 4,0 3,8 1015,2
20.02.2019 04:00:00 4,9 3,7 3,7 1014,7
20.02.2019 03:00:00 5,0 3,7 3,7 1014,6
20.02.2019 02:00:00 5,0 3,5 3,7 1014,6
20.02.2019 01:00:00 5,2 3,2 3,6 1014,1
20.02.2019 00:00:00 5,0 3,9 3,7 1013,8
19.02.2019 23:00:00 5,0 4,0 3,7 1013,3
19.02.2019 22:00:00 5,0 4,0 3,7 1012,9
19.02.2019 21:00:00 4,9 4,0 3,7 1012,6
19.02.2019 20:00:00 5,4 3,9 3,7 1012,3
19.02.2019 19:00:00 5,2 4,2 3,7 1012,0
19.02.2019 18:00:00 5,2 4,0 3,6 1011,5
19.02.2019 17:00:00 5,5 4,2 3,7 1011,0
19.02.2019 16:00:00 5,7 4,0 3,7 1010,5
19.02.2019 15:00:00 5,7 4,2 3,7 1010,4
19.02.2019 14:00:00 5,4 4,0 3,6 1010,2
19.02.2019 13:00:00 5,5 4,0 3,5 1010,0
19.02.2019 12:00:00 5,5 3,9 3,5 1010,4
19.02.2019 11:00:00 5,7 3,7 3,5 1010,1
19.02.2019 10:00:00 5,4 4,0 3,5 1010,5
19.02.2019 09:00:00 5,0 4,4 3,5 1010,4
19.02.2019 08:00:00 4,7 4,4 3,5 1010,2
19.02.2019 07:00:00 4,7 4,5 3,5 1010,1
19.02.2019 06:00:00 5,5 3,9 3,6 1009,9
19.02.2019 05:00:00 5,5 3,0 3,5 1009,6
19.02.2019 04:00:00 5,5 3,0 3,6 1009,8
19.02.2019 03:00:00 6,2 2,5 3,6 1010,4
19.02.2019 02:00:00 6,2 2,7 3,7 1011,3
19.02.2019 01:00:00 5,5 2,9 3,6 1011,8
19.02.2019 00:00:00 5,2 2,7 3,7 1012,1
18.02.2019 23:00:00 5,4 2,7 3,7 1012,5
18.02.2019 22:00:00 5,7 2,9 3,7 1012,9
18.02.2019 21:00:00 6,5 3,2 3,6 1013,3
18.02.2019 20:00:00 5,5 3,5 3,7 1013,7
18.02.2019 19:00:00 6,9 4,0 3,9 1014,2
18.02.2019 18:00:00 7,2 4,5 3,9 1014,7
18.02.2019 17:00:00 7,2 4,5 3,9 1015,2
18.02.2019 16:00:00 7,7 4,4 3,9 1015,8
18.02.2019 15:00:00 10,2 4,5 3,8 1016,1
18.02.2019 14:00:00 8,5 4,2 3,7 1016,4
18.02.2019 13:00:00 10,2 3,7 3,7 1017,1
18.02.2019 12:00:00 9,2 3,0 3,6 1017,7
18.02.2019 11:00:00 9,0 2,9 3,6 1018,2
18.02.2019 10:00:00 7,7 2,5 3,5 1018,2
18.02.2019 09:00:00 6,2 2,4 3,5 1018,1
18.02.2019 08:00:00 4,5 2,2 3,5 1018,1
18.02.2019 07:00:00 4,4 2,2 3,6 1017,6
18.02.2019 06:00:00 3,7 2,7 3,7 1017,9
18.02.2019 05:00:00 4,2 2,7 3,7 1017,9
18.02.2019 04:00:00 4,2 3,0 3,7 1018,2
18.02.2019 03:00:00 4,4 3,0 3,7 1018,5
18.02.2019 02:00:00 4,4 3,2 3,7 1019,1
18.02.2019 01:00:00 4,9 3,7 3,7 1019,6
18.02.2019 00:00:00 4,7 4,2 3,7 1019,8
17.02.2019 23:00:00 4,7 4,2 3,7 1020,0
17.02.2019 22:00:00 4,7 4,2 3,7 1020,3
17.02.2019 21:00:00 5,2 4,3 3,7 1020,7
17.02.2019 20:00:00 5,5 4,7 3,7 1020,9
17.02.2019 19:00:00 5,7 4,7 3,8 1021,0
17.02.2019 18:00:00 5,4 4,5 3,8 1021,3
17.02.2019 17:00:00 5,7 4,5 3,9 1021,1
17.02.2019 16:00:00 6,7 4,5 3,9 1021,7
17.02.2019 15:00:00 8,5 5,2 3,8 1022,0
17.02.2019 14:00:00 8,5 5,0 3,7 1022,4
17.02.2019 13:00:00 7,7 5,5 3,7 1022,9
17.02.2019 12:00:00 7,2 6,0 3,7 1023,6
17.02.2019 11:00:00 6,7 5,5 3,6 1023,8
17.02.2019 10:00:00 6,9 5,7 3,6 1023,5
17.02.2019 09:00:00 6,4 5,4 3,6 1023,3
17.02.2019 08:00:00 6,0 5,0 3,6 1023,2
17.02.2019 07:00:00 5,9 4,9 3,6 1022,9
17.02.2019 06:00:00 6,2 5,0 3,6 1022,6
17.02.2019 05:00:00 6,0 5,0 3,6 1022,8
17.02.2019 04:00:00 6,4 5,4 3,6 1022,7
17.02.2019 03:00:00 6,0 5,0 3,6 1022,9
17.02.2019 02:00:00 6,0 5,0 3,6 1022,7
17.02.2019 01:00:00 5,2 4,5 3,5 1022,8
17.02.2019 00:00:00 5,5 4,7 3,5 1022,6
16.02.2019 23:00:00 6,2 5,0 3,6 1022,4
16.02.2019 22:00:00 5,9 4,5 3,5 1022,5

tt = temperature
td = dewpoint
tw = water temperature
ppp = reduced air pressure

Next stations